Year,Month,Day,Hour,Minute,Value (Times are PST for barometer in hPa)
2016,03,13,00,00,1001.52
2016,03,13,00,01,1001.58
2016,03,13,00,02,1001.56
2016,03,13,00,03,1001.52
2016,03,13,00,04,1001.56
2016,03,13,00,05,1001.56
2016,03,13,00,06,1001.63
2016,03,13,00,07,1001.56
2016,03,13,00,08,1001.49
2016,03,13,00,09,1001.43
2016,03,13,00,10,1001.50
2016,03,13,00,11,1001.59
2016,03,13,00,12,1001.49
2016,03,13,00,13,1001.46
2016,03,13,00,14,1001.46
2016,03,13,00,15,1001.49
2016,03,13,00,16,1001.46
2016,03,13,00,17,1001.46
2016,03,13,00,18,1001.46
2016,03,13,00,19,1001.42
2016,03,13,00,20,1001.41
2016,03,13,00,21,1001.36
2016,03,13,00,22,1001.36
2016,03,13,00,23,1001.29
2016,03,13,00,24,1001.25
2016,03,13,00,25,1001.22
2016,03,13,00,26,1001.19
2016,03,13,00,27,1001.19
2016,03,13,00,28,1001.15
2016,03,13,00,29,1001.12
2016,03,13,00,30,1001.08
2016,03,13,00,31,1001.05
2016,03,13,00,32,1001.04
2016,03,13,00,33,1000.98
2016,03,13,00,34,1000.97
2016,03,13,00,35,1000.92
2016,03,13,00,36,1000.96
2016,03,13,00,37,1001.02
2016,03,13,00,38,1001.05
2016,03,13,00,39,1001.02
2016,03,13,00,40,1001.02
2016,03,13,00,41,1001.02
2016,03,13,00,42,1001.02
2016,03,13,00,43,1001.08
2016,03,13,00,44,1001.08
2016,03,13,00,45,1000.98
2016,03,13,00,46,1001.09
2016,03,13,00,47,1001.19
2016,03,13,00,48,1001.15
2016,03,13,00,49,1001.19
2016,03,13,00,50,1001.19
2016,03,13,00,51,1001.15
2016,03,13,00,52,1001.15
2016,03,13,00,53,1001.22
2016,03,13,00,54,1001.22
2016,03,13,00,55,1001.22
2016,03,13,00,56,1001.22
2016,03,13,00,57,1001.29
2016,03,13,00,58,1001.32
2016,03,13,00,59,1001.25
2016,03,13,01,00,1001.29
2016,03,13,01,01,1001.29
2016,03,13,01,02,1001.22
2016,03,13,01,03,1001.25
2016,03,13,01,04,1001.28
2016,03,13,01,05,1001.19
2016,03,13,01,06,1001.22
2016,03,13,01,07,1001.21
2016,03,13,01,08,1001.15
2016,03,13,01,09,1001.12
2016,03,13,01,10,1001.08
2016,03,13,01,11,1001.03
2016,03,13,01,12,1001.15
2016,03,13,01,13,1001.05
2016,03,13,01,14,1001.02
2016,03,13,01,15,1001.05
2016,03,13,01,16,1001.08
2016,03,13,01,17,1001.02
2016,03,13,01,18,1001.05
2016,03,13,01,19,1001.05
2016,03,13,01,20,1001.05
2016,03,13,01,21,1001.08
2016,03,13,01,22,1001.05
2016,03,13,01,23,1001.08
2016,03,13,01,24,1001.04
2016,03,13,01,25,1000.95
2016,03,13,01,26,1000.98
2016,03,13,01,27,1001.02
2016,03,13,01,28,1001.07
2016,03,13,01,29,1000.95
2016,03,13,01,30,1000.95
2016,03,13,01,31,1000.95
2016,03,13,01,32,1001.02
2016,03,13,01,33,1000.88
2016,03,13,01,34,1000.85
2016,03,13,01,35,1000.88
2016,03,13,01,36,1000.88
2016,03,13,01,37,1000.88
2016,03,13,01,38,1000.92
2016,03,13,01,39,1000.85
2016,03,13,01,40,1000.94
2016,03,13,01,41,1000.78
2016,03,13,01,42,1000.81
2016,03,13,01,43,1000.81
2016,03,13,01,44,1000.81
2016,03,13,01,45,1000.85
2016,03,13,01,46,1000.81
2016,03,13,01,47,1000.85
2016,03,13,01,48,1000.81
2016,03,13,01,49,1000.78
2016,03,13,01,50,1000.75
2016,03,13,01,51,1000.71
2016,03,13,01,52,1000.75
2016,03,13,01,53,1000.75
2016,03,13,01,54,1000.74
2016,03,13,01,55,1000.58
2016,03,13,01,56,1000.65
2016,03,13,01,57,1000.78
2016,03,13,01,58,1000.71
2016,03,13,01,59,1000.68
2016,03,13,03,00,1000.64
2016,03,13,03,01,1000.64
2016,03,13,03,02,1000.64
2016,03,13,03,03,1000.68
2016,03,13,03,04,1000.61
2016,03,13,03,05,1000.64
2016,03,13,03,06,1000.54
2016,03,13,03,07,1000.51
2016,03,13,03,08,1000.51
2016,03,13,03,09,1000.51
2016,03,13,03,10,1000.51
2016,03,13,03,11,1000.44
2016,03,13,03,12,1000.44
2016,03,13,03,13,1000.47
2016,03,13,03,14,1000.37
2016,03,13,03,15,1000.37
2016,03,13,03,16,1000.43
2016,03,13,03,17,1000.34
2016,03,13,03,18,1000.34
2016,03,13,03,19,1000.24
2016,03,13,03,20,1000.27
2016,03,13,03,21,1000.25
2016,03,13,03,22,1000.34
2016,03,13,03,23,1000.27
2016,03,13,03,24,1000.24
2016,03,13,03,25,1000.33
2016,03,13,03,26,1000.17
2016,03,13,03,27,1000.24
2016,03,13,03,28,1000.17
2016,03,13,03,29,1000.17
2016,03,13,03,30,1000.14
2016,03,13,03,31,1000.10
2016,03,13,03,32,1000.14
2016,03,13,03,33,1000.07
2016,03,13,03,34,1000.13
2016,03,13,03,35,1000.00
2016,03,13,03,36,1000.03
2016,03,13,03,37,1000.07
2016,03,13,03,38,1000.03
2016,03,13,03,39,1000.07
2016,03,13,03,40,1000.07
2016,03,13,03,41,1000.00
2016,03,13,03,42,1000.00
2016,03,13,03,43,999.97
2016,03,13,03,44,1000.00
2016,03,13,03,45,999.97
2016,03,13,03,46,999.97
2016,03,13,03,47,999.97
2016,03,13,03,48,999.97
2016,03,13,03,49,999.97
2016,03,13,03,50,999.93
2016,03,13,03,51,999.97
2016,03,13,03,52,999.87
2016,03,13,03,53,999.83
2016,03,13,03,54,999.87
2016,03,13,03,55,999.83
2016,03,13,03,56,999.83
2016,03,13,03,57,999.90
2016,03,13,03,58,999.83
2016,03,13,03,59,999.80
2016,03,13,04,00,999.73
2016,03,13,04,01,999.73
2016,03,13,04,02,999.75
2016,03,13,04,03,999.63
2016,03,13,04,04,999.59
2016,03,13,04,05,999.62
2016,03,13,04,06,999.53
2016,03,13,04,07,999.56
2016,03,13,04,08,999.53
2016,03,13,04,09,999.53
2016,03,13,04,10,999.53
2016,03,13,04,11,999.53
2016,03,13,04,12,999.43
2016,03,13,04,13,999.39
2016,03,13,04,14,999.39
2016,03,13,04,15,999.46
2016,03,13,04,16,999.38
2016,03,13,04,17,999.22
2016,03,13,04,18,999.26
2016,03,13,04,19,999.29
2016,03,13,04,20,999.29
2016,03,13,04,21,999.32
2016,03,13,04,22,999.32
2016,03,13,04,23,999.26
2016,03,13,04,24,999.26
2016,03,13,04,25,999.19
2016,03,13,04,26,999.19
2016,03,13,04,27,999.22
2016,03,13,04,28,999.22
2016,03,13,04,29,999.15
2016,03,13,04,30,999.05
2016,03,13,04,31,999.12
2016,03,13,04,32,999.05
2016,03,13,04,33,999.09
2016,03,13,04,34,999.11
2016,03,13,04,35,999.00
2016,03,13,04,36,999.14
2016,03,13,04,37,999.02
2016,03,13,04,38,998.99
2016,03,13,04,39,999.09
2016,03,13,04,40,998.98
2016,03,13,04,41,998.89
2016,03,13,04,42,999.04
2016,03,13,04,43,998.95
2016,03,13,04,44,998.99
2016,03,13,04,45,998.99
2016,03,13,04,46,998.99
2016,03,13,04,47,998.95
2016,03,13,04,48,999.02
2016,03,13,04,49,998.95
2016,03,13,04,50,998.92
2016,03,13,04,51,998.92
2016,03,13,04,52,998.95
2016,03,13,04,53,998.92
2016,03,13,04,54,998.92
2016,03,13,04,55,998.88
2016,03,13,04,56,998.88
2016,03,13,04,57,998.82
2016,03,13,04,58,998.85
2016,03,13,04,59,998.92
2016,03,13,05,00,998.85
2016,03,13,05,01,998.85
2016,03,13,05,02,998.78
2016,03,13,05,03,998.75
2016,03,13,05,04,998.81
2016,03,13,05,05,998.71
2016,03,13,05,06,998.75
2016,03,13,05,07,998.68
2016,03,13,05,08,998.71
2016,03,13,05,09,998.68
2016,03,13,05,10,998.65
2016,03,13,05,11,998.58
2016,03,13,05,12,998.58
2016,03,13,05,13,998.48
2016,03,13,05,14,998.51
2016,03,13,05,15,998.51
2016,03,13,05,16,998.51
2016,03,13,05,17,998.48
2016,03,13,05,18,998.44
2016,03,13,05,19,998.48
2016,03,13,05,20,998.41
2016,03,13,05,21,998.44
2016,03,13,05,22,998.44
2016,03,13,05,23,998.44
2016,03,13,05,24,998.48
2016,03,13,05,25,998.41
2016,03,13,05,26,998.38
2016,03,13,05,27,998.34
2016,03,13,05,28,998.34
2016,03,13,05,29,998.27
2016,03,13,05,30,998.31
2016,03,13,05,31,998.21
2016,03,13,05,32,998.21
2016,03,13,05,33,998.17
2016,03,13,05,34,998.21
2016,03,13,05,35,998.21
2016,03,13,05,36,998.21
2016,03,13,05,37,998.24
2016,03,13,05,38,998.17
2016,03,13,05,39,998.14
2016,03,13,05,40,998.10
2016,03,13,05,41,998.10
2016,03,13,05,42,998.10
2016,03,13,05,43,998.04
2016,03,13,05,44,998.00
2016,03,13,05,45,998.00
2016,03,13,05,46,998.00
2016,03,13,05,47,997.94
2016,03,13,05,48,997.94
2016,03,13,05,49,997.94
2016,03,13,05,50,997.94
2016,03,13,05,51,997.94
2016,03,13,05,52,997.87
2016,03,13,05,53,997.83
2016,03,13,05,54,997.80
2016,03,13,05,55,997.80
2016,03,13,05,56,997.73
2016,03,13,05,57,997.73
2016,03,13,05,58,997.77
2016,03,13,05,59,997.77
2016,03,13,06,00,997.77
2016,03,13,06,01,997.73
2016,03,13,06,02,997.66
2016,03,13,06,03,997.70
2016,03,13,06,04,997.70
2016,03,13,06,05,997.70
2016,03,13,06,06,997.66
2016,03,13,06,07,997.66
2016,03,13,06,08,997.66
2016,03,13,06,09,997.63
2016,03,13,06,10,997.66
2016,03,13,06,11,997.66
2016,03,13,06,12,997.63
2016,03,13,06,13,997.56
2016,03,13,06,14,997.56
2016,03,13,06,15,997.53
2016,03,13,06,16,997.50
2016,03,13,06,17,997.46
2016,03,13,06,18,997.50
2016,03,13,06,19,997.46
2016,03,13,06,20,997.43
2016,03,13,06,21,997.50
2016,03,13,06,22,997.53
2016,03,13,06,23,997.46
2016,03,13,06,24,997.46
2016,03,13,06,25,997.53
2016,03,13,06,26,997.50
2016,03,13,06,27,997.53
2016,03,13,06,28,997.53
2016,03,13,06,29,997.47
2016,03,13,06,30,997.56
2016,03,13,06,31,997.56
2016,03,13,06,32,997.50
2016,03,13,06,33,997.43
2016,03,13,06,34,997.50
2016,03,13,06,35,997.43
2016,03,13,06,36,997.43
2016,03,13,06,37,997.39
2016,03,13,06,38,997.39
2016,03,13,06,39,997.39
2016,03,13,06,40,997.39
2016,03,13,06,41,997.36
2016,03,13,06,42,997.33
2016,03,13,06,43,997.26
2016,03,13,06,44,997.26
2016,03,13,06,45,997.16
2016,03,13,06,46,997.16
2016,03,13,06,47,997.19
2016,03,13,06,48,997.19
2016,03,13,06,49,997.12
2016,03,13,06,50,997.09
2016,03,13,06,51,997.12
2016,03,13,06,52,997.09
2016,03,13,06,53,997.02
2016,03,13,06,54,996.99
2016,03,13,06,55,996.99
2016,03,13,06,56,997.02
2016,03,13,06,57,996.99
2016,03,13,06,58,997.02
2016,03,13,06,59,996.99
2016,03,13,07,00,996.99
2016,03,13,07,01,996.99
2016,03,13,07,02,996.92
2016,03,13,07,03,996.92
2016,03,13,07,04,996.89
2016,03,13,07,05,996.85
2016,03,13,07,06,996.82
2016,03,13,07,07,996.75
2016,03,13,07,08,996.78
2016,03,13,07,09,996.68
2016,03,13,07,10,996.65
2016,03,13,07,11,996.61
2016,03,13,07,12,996.61
2016,03,13,07,13,996.58
2016,03,13,07,14,996.55
2016,03,13,07,15,996.55
2016,03,13,07,16,996.48
2016,03,13,07,17,996.45
2016,03,13,07,18,996.45
2016,03,13,07,19,996.41
2016,03,13,07,20,996.38
2016,03,13,07,21,996.41
2016,03,13,07,22,996.38
2016,03,13,07,23,996.38
2016,03,13,07,24,996.38
2016,03,13,07,25,996.24
2016,03,13,07,26,996.24
2016,03,13,07,27,996.17
2016,03,13,07,28,996.11
2016,03,13,07,29,996.11
2016,03,13,07,30,996.07
2016,03,13,07,31,996.07
2016,03,13,07,32,996.04
2016,03,13,07,33,996.07
2016,03,13,07,34,996.11
2016,03,13,07,35,996.11
2016,03,13,07,36,996.04
2016,03,13,07,37,996.07
2016,03,13,07,38,996.04
2016,03,13,07,39,995.97
2016,03,13,07,40,995.97
2016,03,13,07,41,995.97
2016,03,13,07,42,995.94
2016,03,13,07,43,995.87
2016,03,13,07,44,995.86
2016,03,13,07,45,995.77
2016,03,13,07,46,995.84
2016,03,13,07,47,995.73
2016,03,13,07,48,995.73
2016,03,13,07,49,995.77
2016,03,13,07,50,995.73
2016,03,13,07,51,995.73
2016,03,13,07,52,995.67
2016,03,13,07,53,995.63
2016,03,13,07,54,995.63
2016,03,13,07,55,995.60
2016,03,13,07,56,995.60
2016,03,13,07,57,995.56
2016,03,13,07,58,995.56
2016,03,13,07,59,995.53
2016,03,13,08,00,995.46
2016,03,13,08,01,995.50
2016,03,13,08,02,995.36
2016,03,13,08,03,995.43
2016,03,13,08,04,995.40
2016,03,13,08,05,995.39
2016,03,13,08,06,995.29
2016,03,13,08,07,995.32
2016,03,13,08,08,995.19
2016,03,13,08,09,995.26
2016,03,13,08,10,995.19
2016,03,13,08,11,995.23
2016,03,13,08,12,995.19
2016,03,13,08,13,995.16
2016,03,13,08,14,995.12
2016,03,13,08,15,995.09
2016,03,13,08,16,995.12
2016,03,13,08,17,995.12
2016,03,13,08,18,995.06
2016,03,13,08,19,995.06
2016,03,13,08,20,994.96
2016,03,13,08,21,994.96
2016,03,13,08,22,994.92
2016,03,13,08,23,994.89
2016,03,13,08,24,994.92
2016,03,13,08,25,994.85
2016,03,13,08,26,994.82
2016,03,13,08,27,994.75
2016,03,13,08,28,994.75
2016,03,13,08,29,994.68
2016,03,13,08,30,994.72
2016,03,13,08,31,994.65
2016,03,13,08,32,994.65
2016,03,13,08,33,994.58
2016,03,13,08,34,994.55
2016,03,13,08,35,994.58
2016,03,13,08,36,994.48
2016,03,13,08,37,994.51
2016,03,13,08,38,994.35
2016,03,13,08,39,994.35
2016,03,13,08,40,994.30
2016,03,13,08,41,994.21
2016,03,13,08,42,994.18
2016,03,13,08,43,994.14
2016,03,13,08,44,994.07
2016,03,13,08,45,993.97
2016,03,13,08,46,993.94
2016,03,13,08,47,993.91
2016,03,13,08,48,993.84
2016,03,13,08,49,993.84
2016,03,13,08,50,993.77
2016,03,13,08,51,993.77
2016,03,13,08,52,993.74
2016,03,13,08,53,993.74
2016,03,13,08,54,993.77
2016,03,13,08,55,993.70
2016,03,13,08,56,993.74
2016,03,13,08,57,993.67
2016,03,13,08,58,993.63
2016,03,13,08,59,993.57
2016,03,13,09,00,993.57
2016,03,13,09,01,993.57
2016,03,13,09,02,993.47
2016,03,13,09,03,993.47
2016,03,13,09,04,993.43
2016,03,13,09,05,993.40
2016,03,13,09,06,993.33
2016,03,13,09,07,993.29
2016,03,13,09,08,993.19
2016,03,13,09,09,993.19
2016,03,13,09,10,993.19
2016,03,13,09,11,993.13
2016,03,13,09,12,993.09
2016,03,13,09,13,993.03
2016,03,13,09,14,992.99
2016,03,13,09,15,992.96
2016,03,13,09,16,992.96
2016,03,13,09,17,992.96
2016,03,13,09,18,992.89
2016,03,13,09,19,992.92
2016,03,13,09,20,992.86
2016,03,13,09,21,992.89
2016,03,13,09,22,992.86
2016,03,13,09,23,992.79
2016,03,13,09,24,992.79
2016,03,13,09,25,992.79
2016,03,13,09,26,992.69
2016,03,13,09,27,992.69
2016,03,13,09,28,992.62
2016,03,13,09,29,992.55
2016,03,13,09,30,992.52
2016,03,13,09,31,992.52
2016,03,13,09,32,992.42
2016,03,13,09,33,992.42
2016,03,13,09,34,992.38
2016,03,13,09,35,992.35
2016,03,13,09,36,992.31
2016,03,13,09,37,992.28
2016,03,13,09,38,992.21
2016,03,13,09,39,992.21
2016,03,13,09,40,992.14
2016,03,13,09,41,992.14
2016,03,13,09,42,992.18
2016,03,13,09,43,992.11
2016,03,13,09,44,992.04
2016,03,13,09,45,992.01
2016,03,13,09,46,991.91
2016,03,13,09,47,991.91
2016,03,13,09,48,991.84
2016,03,13,09,49,991.87
2016,03,13,09,50,991.77
2016,03,13,09,51,991.80
2016,03,13,09,52,991.70
2016,03,13,09,53,991.67
2016,03,13,09,54,991.67
2016,03,13,09,55,991.64
2016,03,13,09,56,991.57
2016,03,13,09,57,991.53
2016,03,13,09,58,991.53
2016,03,13,09,59,991.50
2016,03,13,10,00,991.43
2016,03,13,10,01,991.47
2016,03,13,10,02,991.43
2016,03,13,10,03,991.37
2016,03,13,10,04,991.33
2016,03,13,10,05,991.29
2016,03,13,10,06,991.16
2016,03,13,10,07,991.16
2016,03,13,10,08,991.09
2016,03,13,10,09,991.03
2016,03,13,10,10,990.93
2016,03,13,10,11,990.93
2016,03,13,10,12,990.93
2016,03,13,10,13,990.82
2016,03,13,10,14,990.72
2016,03,13,10,15,990.76
2016,03,13,10,16,990.65
2016,03,13,10,17,990.59
2016,03,13,10,18,990.55
2016,03,13,10,19,990.49
2016,03,13,10,20,990.59
2016,03,13,10,21,990.49
2016,03,13,10,22,990.42
2016,03,13,10,23,990.38
2016,03,13,10,24,990.32
2016,03,13,10,25,990.25
2016,03,13,10,26,990.21
2016,03,13,10,27,990.21
2016,03,13,10,28,990.18
2016,03,13,10,29,990.15
2016,03,13,10,30,990.11
2016,03,13,10,31,990.11
2016,03,13,10,32,990.03
2016,03,13,10,33,989.91
2016,03,13,10,34,989.91
2016,03,13,10,35,989.81
2016,03,13,10,36,989.81
2016,03,13,10,37,989.73
2016,03,13,10,38,989.64
2016,03,13,10,39,989.67
2016,03,13,10,40,989.60
2016,03,13,10,41,989.57
2016,03,13,10,42,989.57
2016,03,13,10,43,989.57
2016,03,13,10,44,989.54
2016,03,13,10,45,989.47
2016,03,13,10,46,989.33
2016,03,13,10,47,989.33
2016,03,13,10,48,989.37
2016,03,13,10,49,989.36
2016,03,13,10,50,989.27
2016,03,13,10,51,989.27
2016,03,13,10,52,989.20
2016,03,13,10,53,989.20
2016,03,13,10,54,989.22
2016,03,13,10,55,989.13
2016,03,13,10,56,989.13
2016,03,13,10,57,989.00
2016,03,13,10,58,988.93
2016,03,13,10,59,988.93
2016,03,13,11,00,989.00
2016,03,13,11,01,988.86
2016,03,13,11,02,988.89
2016,03,13,11,03,988.86
2016,03,13,11,04,988.89
2016,03,13,11,05,988.86
2016,03,13,11,06,988.89
2016,03,13,11,07,988.83
2016,03,13,11,08,988.83
2016,03,13,11,09,988.86
2016,03,13,11,10,988.79
2016,03,13,11,11,988.83
2016,03,13,11,12,988.86
2016,03,13,11,13,988.79
2016,03,13,11,14,988.79
2016,03,13,11,15,988.76
2016,03,13,11,16,988.79
2016,03,13,11,17,988.76
2016,03,13,11,18,988.72
2016,03,13,11,19,988.76
2016,03,13,11,20,988.72
2016,03,13,11,21,988.72
2016,03,13,11,22,988.69
2016,03,13,11,23,988.72
2016,03,13,11,24,988.69
2016,03,13,11,25,988.72
2016,03,13,11,26,988.62
2016,03,13,11,27,988.59
2016,03,13,11,28,988.62
2016,03,13,11,29,988.62
2016,03,13,11,30,988.66
2016,03,13,11,31,988.62
2016,03,13,11,32,988.59
2016,03,13,11,33,988.59
2016,03,13,11,34,988.55
2016,03,13,11,35,988.62
2016,03,13,11,36,988.59
2016,03,13,11,37,988.52
2016,03,13,11,38,988.52
2016,03,13,11,39,988.62
2016,03,13,11,40,988.62
2016,03,13,11,41,988.66
2016,03,13,11,42,988.69
2016,03,13,11,43,988.66
2016,03,13,11,44,988.62
2016,03,13,11,45,988.52
2016,03,13,11,46,988.55
2016,03,13,11,47,988.59
2016,03,13,11,48,988.52
2016,03,13,11,49,988.62
2016,03,13,11,50,988.59
2016,03,13,11,51,988.59
2016,03,13,11,52,988.66
2016,03,13,11,53,988.65
2016,03,13,11,54,988.55
2016,03,13,11,55,988.61
2016,03,13,11,56,988.52
2016,03,13,11,57,988.55
2016,03,13,11,58,988.52
2016,03,13,11,59,988.45
2016,03,13,12,00,988.39
2016,03,13,12,01,988.39
2016,03,13,12,02,988.32
2016,03,13,12,03,988.32
2016,03,13,12,04,988.25
2016,03,13,12,05,988.22
2016,03,13,12,06,988.15
2016,03,13,12,07,988.08
2016,03,13,12,08,988.05
2016,03,13,12,09,988.04
2016,03,13,12,10,987.91
2016,03,13,12,11,988.01
2016,03,13,12,12,987.95
2016,03,13,12,13,988.05
2016,03,13,12,14,988.01
2016,03,13,12,15,987.91
2016,03,13,12,16,987.98
2016,03,13,12,17,987.98
2016,03,13,12,18,987.91
2016,03,13,12,19,987.84
2016,03,13,12,20,988.01
2016,03,13,12,21,987.95
2016,03,13,12,22,987.88
2016,03,13,12,23,987.88
2016,03,13,12,24,987.84
2016,03,13,12,25,987.81
2016,03,13,12,26,987.81
2016,03,13,12,27,987.88
2016,03,13,12,28,987.88
2016,03,13,12,29,987.84
2016,03,13,12,30,987.84
2016,03,13,12,31,987.88
2016,03,13,12,32,987.88
2016,03,13,12,33,987.91
2016,03,13,12,34,987.84
2016,03,13,12,35,987.91
2016,03,13,12,36,987.84
2016,03,13,12,37,987.88
2016,03,13,12,38,987.91
2016,03,13,12,39,987.91
2016,03,13,12,40,987.88
2016,03,13,12,41,987.88
2016,03,13,12,42,987.91
2016,03,13,12,43,987.88
2016,03,13,12,44,987.78
2016,03,13,12,45,987.74
2016,03,13,12,46,987.71
2016,03,13,12,47,987.71
2016,03,13,12,48,987.78
2016,03,13,12,49,987.71
2016,03,13,12,50,987.71
2016,03,13,12,51,987.64
2016,03,13,12,52,987.66
2016,03,13,12,53,987.54
2016,03,13,12,54,987.57
2016,03,13,12,55,987.57
2016,03,13,12,56,987.61
2016,03,13,12,57,987.54
2016,03,13,12,58,987.54
2016,03,13,12,59,987.51
2016,03,13,13,00,987.51
2016,03,13,13,01,987.44
2016,03,13,13,02,987.40
2016,03,13,13,03,987.40
2016,03,13,13,04,987.27
2016,03,13,13,05,987.34
2016,03,13,13,06,987.30
2016,03,13,13,07,987.23
2016,03,13,13,08,987.20
2016,03,13,13,09,987.20
2016,03,13,13,10,987.13
2016,03,13,13,11,987.13
2016,03,13,13,12,987.13
2016,03,13,13,13,987.06
2016,03,13,13,14,987.03
2016,03,13,13,15,986.96
2016,03,13,13,16,986.93
2016,03,13,13,17,986.86
2016,03,13,13,18,986.79
2016,03,13,13,19,986.76
2016,03,13,13,20,986.69
2016,03,13,13,21,986.73
2016,03,13,13,22,986.73
2016,03,13,13,23,986.69
2016,03,13,13,24,986.66
2016,03,13,13,25,986.62
2016,03,13,13,26,986.56
2016,03,13,13,27,986.52
2016,03,13,13,28,986.39
2016,03,13,13,29,986.35
2016,03,13,13,30,986.35
2016,03,13,13,31,986.25
2016,03,13,13,32,986.25
2016,03,13,13,33,986.25
2016,03,13,13,34,986.29
2016,03,13,13,35,986.22
2016,03,13,13,36,986.32
2016,03,13,13,37,986.29
2016,03,13,13,38,986.25
2016,03,13,13,39,986.15
2016,03,13,13,40,986.22
2016,03,13,13,41,986.15
2016,03,13,13,42,986.08
2016,03,13,13,43,986.02
2016,03,13,13,44,986.02
2016,03,13,13,45,985.95
2016,03,13,13,46,985.81
2016,03,13,13,47,985.81
2016,03,13,13,48,985.80
2016,03,13,13,49,985.71
2016,03,13,13,50,985.74
2016,03,13,13,51,985.71
2016,03,13,13,52,985.64
2016,03,13,13,53,985.71
2016,03,13,13,54,985.68
2016,03,13,13,55,985.57
2016,03,13,13,56,985.47
2016,03,13,13,57,985.41
2016,03,13,13,58,985.41
2016,03,13,13,59,985.41
2016,03,13,14,00,985.37
2016,03,13,14,01,985.30
2016,03,13,14,02,985.27
2016,03,13,14,03,985.27
2016,03,13,14,04,985.24
2016,03,13,14,05,985.10
2016,03,13,14,06,985.03
2016,03,13,14,07,985.00
2016,03,13,14,08,985.00
2016,03,13,14,09,984.90
2016,03,13,14,10,984.83
2016,03,13,14,11,984.76
2016,03,13,14,12,984.83
2016,03,13,14,13,984.69
2016,03,13,14,14,984.69
2016,03,13,14,15,984.66
2016,03,13,14,16,984.66
2016,03,13,14,17,984.49
2016,03,13,14,18,984.56
2016,03,13,14,19,984.53
2016,03,13,14,20,984.36
2016,03,13,14,21,984.39
2016,03,13,14,22,984.46
2016,03,13,14,23,984.25
2016,03,13,14,24,984.29
2016,03,13,14,25,984.42
2016,03,13,14,26,984.25
2016,03,13,14,27,984.22
2016,03,13,14,28,984.15
2016,03,13,14,29,984.02
2016,03,13,14,30,984.02
2016,03,13,14,31,984.05
2016,03,13,14,32,984.12
2016,03,13,14,33,984.12
2016,03,13,14,34,983.95
2016,03,13,14,35,984.02
2016,03,13,14,36,983.98
2016,03,13,14,37,983.92
2016,03,13,14,38,983.85
2016,03,13,14,39,983.78
2016,03,13,14,40,983.88
2016,03,13,14,41,983.78
2016,03,13,14,42,983.68
2016,03,13,14,43,983.78
2016,03,13,14,44,983.61
2016,03,13,14,45,983.58
2016,03,13,14,46,983.64
2016,03,13,14,47,983.54
2016,03,13,14,48,983.58
2016,03,13,14,49,983.54
2016,03,13,14,50,983.51
2016,03,13,14,51,983.48
2016,03,13,14,52,983.31
2016,03,13,14,53,983.34
2016,03,13,14,54,983.27
2016,03,13,14,55,983.17
2016,03,13,14,56,983.14
2016,03,13,14,57,983.07
2016,03,13,14,58,983.14
2016,03,13,14,59,982.97
2016,03,13,15,00,983.00
2016,03,13,15,01,983.03
2016,03,13,15,02,982.93
2016,03,13,15,03,982.93
2016,03,13,15,04,982.76
2016,03,13,15,05,982.76
2016,03,13,15,06,982.76
2016,03,13,15,07,982.80
2016,03,13,15,08,982.73
2016,03,13,15,09,982.66
2016,03,13,15,10,982.59
2016,03,13,15,11,982.59
2016,03,13,15,12,982.43
2016,03,13,15,13,982.39
2016,03,13,15,14,982.36
2016,03,13,15,15,982.28
2016,03,13,15,16,982.15
2016,03,13,15,17,982.12
2016,03,13,15,18,982.02
2016,03,13,15,19,982.02
2016,03,13,15,20,982.09
2016,03,13,15,21,981.95
2016,03,13,15,22,981.92
2016,03,13,15,23,981.95
2016,03,13,15,24,982.02
2016,03,13,15,25,981.92
2016,03,13,15,26,981.88
2016,03,13,15,27,981.92
2016,03,13,15,28,981.88
2016,03,13,15,29,981.85
2016,03,13,15,30,981.78
2016,03,13,15,31,981.88
2016,03,13,15,32,981.88
2016,03,13,15,33,981.98
2016,03,13,15,34,981.88
2016,03,13,15,35,981.88
2016,03,13,15,36,981.92
2016,03,13,15,37,981.85
2016,03,13,15,38,981.95
2016,03,13,15,39,981.88
2016,03,13,15,40,981.85
2016,03,13,15,41,981.88
2016,03,13,15,42,981.85
2016,03,13,15,43,981.78
2016,03,13,15,44,981.82
2016,03,13,15,45,981.82
2016,03,13,15,46,981.65
2016,03,13,15,47,981.77
2016,03,13,15,48,981.78
2016,03,13,15,49,981.85
2016,03,13,15,50,981.65
2016,03,13,15,51,981.71
2016,03,13,15,52,981.65
2016,03,13,15,53,981.51
2016,03,13,15,54,981.55
2016,03,13,15,55,981.51
2016,03,13,15,56,981.55
2016,03,13,15,57,981.50
2016,03,13,15,58,981.31
2016,03,13,15,59,981.27
2016,03,13,16,00,981.21
2016,03,13,16,01,981.30
2016,03,13,16,02,981.10
2016,03,13,16,03,980.94
2016,03,13,16,04,980.90
2016,03,13,16,05,980.87
2016,03,13,16,06,980.83
2016,03,13,16,07,980.97
2016,03,13,16,08,981.14
2016,03,13,16,09,981.00
2016,03,13,16,10,980.90
2016,03,13,16,11,980.94
2016,03,13,16,12,981.07
2016,03,13,16,13,981.00
2016,03,13,16,14,980.97
2016,03,13,16,15,981.00
2016,03,13,16,16,981.07
2016,03,13,16,17,981.00
2016,03,13,16,18,981.10
2016,03,13,16,19,981.20
2016,03,13,16,20,981.04
2016,03,13,16,21,981.31
2016,03,13,16,22,981.38
2016,03,13,16,23,981.41
2016,03,13,16,24,981.44
2016,03,13,16,25,981.41
2016,03,13,16,26,981.41
2016,03,13,16,27,981.61
2016,03,13,16,28,981.55
2016,03,13,16,29,981.59
2016,03,13,16,30,981.75
2016,03,13,16,31,981.74
2016,03,13,16,32,981.61
2016,03,13,16,33,981.71
2016,03,13,16,34,981.71
2016,03,13,16,35,981.75
2016,03,13,16,36,981.75
2016,03,13,16,37,981.78
2016,03,13,16,38,981.82
2016,03,13,16,39,981.92
2016,03,13,16,40,981.92
2016,03,13,16,41,981.99
2016,03,13,16,42,981.95
2016,03,13,16,43,981.95
2016,03,13,16,44,981.95
2016,03,13,16,45,981.99
2016,03,13,16,46,982.05
2016,03,13,16,47,982.09
2016,03,13,16,48,982.09
2016,03,13,16,49,982.05
2016,03,13,16,50,982.05
2016,03,13,16,51,982.05
2016,03,13,16,52,982.02
2016,03,13,16,53,982.09
2016,03,13,16,54,982.12
2016,03,13,16,55,982.26
2016,03,13,16,56,982.12
2016,03,13,16,57,982.26
2016,03,13,16,58,982.36
2016,03,13,16,59,982.22
2016,03,13,17,00,982.26
2016,03,13,17,01,982.32
2016,03,13,17,02,982.29
2016,03,13,17,03,982.36
2016,03,13,17,04,982.46
2016,03,13,17,05,982.39
2016,03,13,17,06,982.49
2016,03,13,17,07,982.53
2016,03,13,17,08,982.56
2016,03,13,17,09,982.59
2016,03,13,17,10,982.49
2016,03,13,17,11,982.66
2016,03,13,17,12,982.49
2016,03,13,17,13,982.70
2016,03,13,17,14,982.63
2016,03,13,17,15,982.63
2016,03,13,17,16,982.76
2016,03,13,17,17,982.57
2016,03,13,17,18,982.49
2016,03,13,17,19,982.56
2016,03,13,17,20,982.73
2016,03,13,17,21,982.49
2016,03,13,17,22,982.49
2016,03,13,17,23,982.49
2016,03,13,17,24,982.49
2016,03,13,17,25,982.46
2016,03,13,17,26,982.39
2016,03,13,17,27,982.49
2016,03,13,17,28,982.36
2016,03,13,17,29,982.43